TimeCDT,TemperatureF,Dew PointF,Humidity,Sea Level PressureIn,VisibilityMPH,Wind Direction,Wind SpeedMPH,Gust SpeedMPH,PrecipitationIn,Events,Conditions,WindDirDegrees,DateUTC
12:15 AM,71.6,69.8,94,29.97,8.0,Calm,Calm,-,N/A,,Scattered Clouds,0,2013-07-25 05:15:00
12:35 AM,71.6,69.8,94,29.98,7.0,Calm,Calm,-,N/A,,Partly Cloudy,0,2013-07-25 05:35:00
12:55 AM,71.6,68.0,88,29.97,7.0,North,3.5,-,N/A,,Clear,10,2013-07-25 05:55:00
1:15 AM,71.6,68.0,88,29.97,7.0,Calm,Calm,-,N/A,,Clear,0,2013-07-25 06:15:00
1:35 AM,71.6,68.0,88,29.97,8.0,NNE,3.5,-,N/A,,Clear,20,2013-07-25 06:35:00
1:55 AM,71.6,68.0,88,29.97,7.0,NNE,4.6,-,N/A,,Clear,20,2013-07-25 06:55:00
2:15 AM,71.6,66.2,83,29.97,8.0,North,3.5,-,N/A,,Clear,10,2013-07-25 07:15:00
2:35 AM,69.8,66.2,88,29.97,8.0,North,3.5,-,N/A,,Clear,10,2013-07-25 07:35:00
2:55 AM,69.8,66.2,88,29.97,8.0,NNE,3.5,-,N/A,,Clear,30,2013-07-25 07:55:00
3:15 AM,68.0,66.2,94,29.97,7.0,NNE,3.5,-,N/A,,Clear,20,2013-07-25 08:15:00
3:35 AM,68.0,66.2,94,29.97,8.0,NNE,3.5,-,N/A,,Clear,30,2013-07-25 08:35:00
3:55 AM,68.0,66.2,94,29.98,7.0,NNE,4.6,-,N/A,,Clear,20,2013-07-25 08:55:00
4:15 AM,68.0,66.2,94,29.98,8.0,NNE,3.5,-,N/A,,Clear,20,2013-07-25 09:15:00
4:35 AM,68.0,64.4,88,29.98,8.0,NNE,3.5,-,N/A,,Clear,30,2013-07-25 09:35:00
4:55 AM,68.0,64.4,88,29.99,8.0,Calm,Calm,-,N/A,,Clear,0,2013-07-25 09:55:00
5:15 AM,66.2,64.4,94,30.00,8.0,Calm,Calm,-,N/A,,Clear,0,2013-07-25 10:15:00
5:35 AM,66.2,64.4,94,30.01,8.0,Calm,Calm,-,N/A,,Clear,0,2013-07-25 10:35:00
5:55 AM,66.2,64.4,94,30.01,9.0,Calm,Calm,-,N/A,,Clear,0,2013-07-25 10:55:00
6:15 AM,66.2,62.6,88,30.02,7.0,Calm,Calm,-,N/A,,Clear,0,2013-07-25 11:15:00
6:35 AM,66.2,62.6,88,30.03,7.0,North,3.5,-,N/A,,Clear,10,2013-07-25 11:35:00
6:55 AM,66.2,62.6,88,30.03,8.0,NNE,3.5,-,N/A,,Clear,20,2013-07-25 11:55:00
7:15 AM,66.2,62.6,88,30.03,7.0,NNE,4.6,-,N/A,,Clear,20,2013-07-25 12:15:00
7:35 AM,68.0,62.6,83,30.04,8.0,NNE,4.6,-,N/A,,Clear,20,2013-07-25 12:35:00
7:55 AM,68.0,62.6,83,30.04,7.0,NNE,6.9,-,N/A,,Clear,30,2013-07-25 12:55:00
8:15 AM,68.0,62.6,83,30.05,9.0,NNE,3.5,-,N/A,,Clear,30,2013-07-25 13:15:00
8:35 AM,68.0,62.6,83,30.05,8.0,Calm,Calm,-,N/A,,Clear,0,2013-07-25 13:35:00
8:55 AM,71.6,62.6,73,30.05,8.0,NNE,4.6,-,N/A,,Clear,20,2013-07-25 13:55:00
9:15 AM,71.6,62.6,73,30.05,8.0,North,4.6,-,N/A,,Clear,360,2013-07-25 14:15:00
9:35 AM,73.4,62.6,69,30.06,9.0,Calm,Calm,-,N/A,,Clear,0,2013-07-25 14:35:00
9:55 AM,75.2,62.6,65,30.06,8.0,NNE,6.9,-,N/A,,Clear,20,2013-07-25 14:55:00
10:15 AM,75.2,62.6,65,30.06,7.0,North,5.8,-,N/A,,Clear,10,2013-07-25 15:15:00
10:35 AM,75.2,62.6,65,30.07,9.0,North,6.9,-,N/A,,Clear,360,2013-07-25 15:35:00
10:55 AM,77.0,62.6,61,30.08,8.0,North,6.9,-,N/A,,Clear,350,2013-07-25 15:55:00
11:15 AM,77.0,62.6,61,30.08,8.0,North,3.5,-,N/A,,Clear,350,2013-07-25 16:15:00
11:35 AM,78.8,62.6,57,30.09,9.0,North,8.1,-,N/A,,Clear,360,2013-07-25 16:35:00
11:55 AM,78.8,60.8,54,30.09,9.0,NNE,6.9,-,N/A,,Clear,20,2013-07-25 16:55:00
12:15 PM,78.8,62.6,57,30.08,9.0,NNW,5.8,-,N/A,,Clear,340,2013-07-25 17:15:00
12:35 PM,78.8,62.6,57,30.08,8.0,North,8.1,-,N/A,,Clear,350,2013-07-25 17:35:00
12:55 PM,80.6,62.6,54,30.08,9.0,NNE,5.8,-,N/A,,Clear,20,2013-07-25 17:55:00
1:15 PM,80.6,60.8,51,30.08,8.0,NNW,8.1,-,N/A,,Clear,330,2013-07-25 18:15:00
1:35 PM,80.6,60.8,51,30.07,9.0,North,4.6,-,N/A,,Clear,10,2013-07-25 18:35:00
1:55 PM,80.6,62.6,54,30.07,9.0,North,4.6,-,N/A,,Clear,360,2013-07-25 18:55:00
2:15 PM,80.6,60.8,51,30.07,8.0,North,6.9,-,N/A,,Clear,360,2013-07-25 19:15:00
2:35 PM,80.6,59.0,48,30.07,9.0,NW,5.8,-,N/A,,Clear,320,2013-07-25 19:35:00
2:55 PM,80.6,60.8,51,30.06,10.0,North,3.5,-,N/A,,Clear,360,2013-07-25 19:55:00
3:15 PM,80.6,59.0,48,30.07,9.0,NNW,5.8,-,N/A,,Clear,340,2013-07-25 20:15:00
3:35 PM,80.6,60.8,51,30.07,9.0,NNW,4.6,-,N/A,,Clear,330,2013-07-25 20:35:00
3:55 PM,80.6,60.8,51,30.07,10.0,NW,9.2,-,N/A,,Clear,310,2013-07-25 20:55:00
4:15 PM,80.6,60.8,51,30.07,9.0,NNW,4.6,-,N/A,,Clear,330,2013-07-25 21:15:00
4:35 PM,80.6,60.8,51,30.08,8.0,NNW,6.9,-,N/A,,Clear,330,2013-07-25 21:35:00
4:55 PM,80.6,60.8,51,30.08,9.0,NNW,6.9,-,N/A,,Clear,330,2013-07-25 21:55:00
5:15 PM,80.6,62.6,54,30.07,9.0,North,4.6,-,N/A,,Clear,350,2013-07-25 22:15:00
5:35 PM,78.8,62.6,57,30.07,9.0,NNW,4.6,-,N/A,,Clear,340,2013-07-25 22:35:00
5:55 PM,78.8,64.4,61,30.07,6.0,North,3.5,-,N/A,,Haze,350,2013-07-25 22:55:00
6:15 PM,78.8,64.4,61,30.07,8.0,North,4.6,-,N/A,,Clear,350,2013-07-25 23:15:00
6:35 PM,77.0,64.4,65,30.07,8.0,NNW,6.9,-,N/A,,Clear,330,2013-07-25 23:35:00
6:55 PM,75.2,64.4,69,30.07,8.0,NW,4.6,-,N/A,,Clear,310,2013-07-25 23:55:00
7:15 PM,75.2,64.4,69,30.07,8.0,NW,5.8,-,N/A,,Clear,320,2013-07-26 00:15:00
7:35 PM,73.4,64.4,73,30.06,9.0,NNW,3.5,-,N/A,,Clear,330,2013-07-26 00:35:00
7:55 PM,73.4,64.4,73,30.06,9.0,Calm,Calm,-,N/A,,Clear,0,2013-07-26 00:55:00
8:15 PM,71.6,64.4,78,30.06,9.0,Calm,Calm,-,N/A,,Clear,0,2013-07-26 01:15:00
8:35 PM,71.6,64.4,78,30.06,10.0,Calm,Calm,-,N/A,,Clear,0,2013-07-26 01:35:00
8:55 PM,71.6,64.4,78,30.06,10.0,Calm,Calm,-,N/A,,Clear,0,2013-07-26 01:55:00
9:15 PM,71.6,64.4,78,30.08,10.0,Calm,Calm,-,N/A,,Clear,0,2013-07-26 02:15:00
9:35 PM,69.8,64.4,83,30.08,10.0,Calm,Calm,-,N/A,,Clear,0,2013-07-26 02:35:00
9:55 PM,69.8,64.4,83,30.08,10.0,Calm,Calm,-,N/A,,Clear,0,2013-07-26 02:55:00
10:15 PM,69.8,64.4,83,30.09,9.0,Calm,Calm,-,N/A,,Clear,0,2013-07-26 03:15:00
10:35 PM,68.0,64.4,88,30.08,10.0,Calm,Calm,-,N/A,,Clear,0,2013-07-26 03:35:00
10:55 PM,68.0,64.4,88,30.07,10.0,East,3.5,-,N/A,,Clear,90,2013-07-26 03:55:00
11:15 PM,68.0,64.4,88,30.07,10.0,Calm,Calm,-,N/A,,Clear,0,2013-07-26 04:15:00
11:35 PM,68.0,62.6,83,30.07,10.0,Calm,Calm,-,N/A,,Clear,0,2013-07-26 04:35:00
11:55 PM,68.0,62.6,83,30.07,10.0,Calm,Calm,-,N/A,,Clear,0,2013-07-26 04:55:00